Wind_Speed
27 27 27 28 28 28 28 29 31 32 32 28 21 16 13 11 11 12 16 20 25 26 26 25 25 25 24 23 24 25 26 28 27 26 26 29 32 35 37 38 38 36 34 31 30 28 26 26 25 25 24 23 23 24 26 26 27 27 26 25 24 22 21 20 18 17 16 14 13
27 29 30 30 30 30 30 30 31 31 30 27 22 18 15 13 12 11 12 15 18 20 21 22 22 24 25 25 24 24 23 23 21 19 20 24 30 34 36 38 37 36 33 31 31 30 29 28 28 27 27 26 26 25 25 25 26 26 26 25 24 22 21 20 18 17 15 14 13
27 29 30 30 30 29 27 25 24 25 25 24 23 21 18 14 11 10 11 13 15 18 20 22 22 25 27 28 26 25 24 23 21 19 20 23 28 33 36 37 36 34 32 30 31 31 31 30 30 30 30 29 27 26 25 25 25 25 25 25 23 22 20 19 18 16 15 14 12
25 25 23 21 21 20 18 17 18 19 21 21 22 22 19 14 10 9 10 13 16 20 23 24 25 26 29 31 30 28 26 25 24 23 23 24 27 31 34 36 34 33 32 31 32 32 32 32 32 31 31 29 27 26 26 25 24 24 24 23 22 21 20 19 17 16 14 13 12
16 13 10 10 11 13 14 15 16 19 21 23 24 24 23 19 15 12 12 14 17 21 25 27 28 29 31 34 35 33 30 28 27 27 26 26 27 29 32 34 34 34 33 33 33 33 33 33 32 31 30 29 27 26 25 25 24 24 23 22 21 20 19 18 17 15 14 13 12
10 10 11 11 12 14 15 17 19 21 22 23 26 28 28 26 22 17 14 15 17 21 25 29 31 33 35 36 37 36 34 32 31 30 29 27 25 26 29 32 34 35 34 34 33 33 33 33 32 31 30 29 28 26 25 24 24 23 23 21 20 19 18 17 16 14 14 13 13
13 13 14 15 17 19 20 22 22 22 23 24 27 30 32 32 29 24 19 17 18 21 26 30 34 35 36 37 38 38 37 35 33 32 30 28 26 26 28 31 34 35 34 33 33 32 32 32 32 32 31 30 28 27 25 24 23 23 22 21 19 17 16 16 15 14 14 13 13
18 19 19 19 20 23 25 26 25 24 24 26 28 31 34 35 35 31 26 22 21 23 27 31 35 37 38 40 40 40 39 38 36 34 33 32 29 28 28 30 32 33 33 33 33 33 33 33 33 32 31 30 29 27 25 24 23 22 21 20 19 17 15 15 14 14 14 14 14
21 22 24 24 25 27 29 29 28 28 28 28 30 32 34 37 38 37 32 28 25 26 29 33 36 39 41 42 43 43 41 40 39 38 37 36 34 31 29 29 30 31 31 31 32 33 33 33 33 32 31 30 29 27 26 24 23 21 20 19 18 17 16 15 14 14 15 15 15
24 25 26 28 29 30 31 31 32 32 31 31 31 33 36 38 39 39 36 32 30 31 33 36 39 42 43 45 45 44 43 42 41 41 41 40 37 34 31 29 29 28 28 28 29 30 32 32 31 31 30 29 28 27 26 24 22 21 20 19 18 17 16 15 15 15 16 16 16
26 26 27 29 31 33 33 34 34 34 34 33 33 34 36 38 39 39 38 36 35 35 37 39 42 44 45 46 46 45 45 44 43 43 42 41 39 35 32 29 27 26 24 23 24 26 28 29 29 29 28 27 27 26 25 24 22 21 20 19 18 18 17 17 16 16 16 16 16
27 27 29 32 34 35 36 36 36 35 35 35 35 35 36 38 40 40 40 39 38 37 38 41 44 46 46 46 46 45 45 44 43 42 41 39 37 34 30 27 25 23 22 21 21 23 24 26 27 28 27 26 25 25 24 23 21 20 20 19 18 18 18 18 17 16 16 16 15
28 30 31 33 35 36 37 37 36 36 37 37 37 37 39 40 41 42 43 42 40 39 39 41 43 45 46 46 45 44 44 43 42 41 40 38 36 33 30 26 24 22 21 20 20 20 21 23 24 26 26 25 24 23 22 21 20 20 20 20 20 19 19 18 18 17 16 15 15
29 31 32 33 34 36 36 35 35 36 37 38 38 40 42 43 43 44 45 44 42 40 40 40 41 42 44 45 44 44 43 42 42 41 40 38 36 33 30 27 25 24 22 21 20 20 20 21 22 23 23 23 22 21 20 19 19 20 20 21 20 20 19 18 17 16 16 15 14
29 30 31 32 32 33 33 33 33 34 35 37 39 41 44 45 45 46 46 45 43 42 41 40 40 40 42 44 45 44 42 41 41 41 41 39 36 33 31 29 27 26 24 23 21 21 20 21 20 21 21 21 21 20 19 19 19 19 19 20 20 19 18 18 16 15 15 14 14
28 29 30 30 30 30 31 30 30 31 33 35 38 41 43 45 46 46 47 46 44 43 42 42 41 41 42 43 44 43 42 41 41 41 41 39 37 34 32 30 28 27 25 24 23 22 21 21 20 19 19 19 19 19 18 18 18 18 18 18 18 17 17 16 15 15 14 14 14
27 28 29 29 30 30 30 29 29 30 32 34 37 40 41 43 44 46 47 47 46 45 45 45 44 43 43 43 43 42 41 41 40 41 40 40 38 36 34 31 29 28 27 26 25 24 22 21 20 19 18 18 18 18 17 17 17 17 16 16 16 16 16 15 15 14 14 13 14
27 28 29 30 31 31 31 31 31 32 33 34 36 38 39 40 41 43 45 46 47 48 47 46 45 44 44 43 42 42 41 41 40 40 40 39 38 36 34 32 30 29 27 27 26 24 23 21 19 19 18 18 17 16 16 16 16 16 16 16 16 15 15 15 14 14 14 14 14
27 29 30 31 32 33 34 35 35 35 34 35 35 36 37 38 40 41 43 45 47 48 48 46 44 44 44 43 42 41 41 40 40 40 39 38 37 36 34 33 31 29 28 27 25 24 22 20 19 18 18 17 16 16 15 15 15 15 15 16 16 15 15 15 14 14 14 14 14
27 29 31 33 34 35 36 37 37 37 37 36 36 36 36 37 39 41 43 44 46 47 46 45 43 43 43 43 42 41 40 39 39 39 38 37 36 35 33 32 30 28 26 25 23 22 20 19 18 18 17 16 16 15 15 15 15 15 15 15 15 15 15 14 14 14 13 14 14
27 28 30 33 35 36 38 39 39 39 39 38 38 37 37 37 38 40 42 44 44 44 44 44 43 43 42 42 42 40 39 38 38 37 36 35 34 33 32 31 29 26 24 23 22 21 20 19 18 17 17 16 15 15 15 15 15 15 15 15 15 14 14 13 13 13 13 12 12
27 28 30 33 35 37 38 39 40 40 40 39 39 38 38 37 37 38 40 42 43 43 42 42 42 42 42 42 41 40 39 37 36 35 35 34 33 31 30 28 26 24 23 22 22 21 21 20 18 17 16 15 15 15 15 15 15 15 15 15 14 14 14 13 13 13 12 12 11
29 30 31 33 35 37 38 39 40 40 40 40 39 39 38 38 38 38 39 40 41 41 41 40 40 41 41 41 41 40 39 37 36 34 33 32 31 29 27 25 24 23 23 22 22 22 22 20 19 16 15 15 15 15 15 15 15 15 15 15 15 15 14 14 13 13 13 12 11
32 32 33 34 36 37 38 39 40 40 40 39 39 39 39 39 39 39 39 40 40 40 40 39 39 40 40 40 39 39 38 37 36 34 32 30 29 28 26 25 24 24 23 23 22 21 20 19 18 16 15 14 15 15 16 16 16 16 17 17 17 17 16 15 14 14 13 13 12
33 33 34 35 36 37 38 39 39 39 39 39 39 39 39 39 40 40 40 40 40 40 40 39 39 39 39 39 38 38 37 36 35 34 32 30 28 27 26 25 24 23 23 22 21 19 18 17 16 15 15 15 16 17 17 17 18 18 19 19 19 18 18 17 16 15 15 14 14
33 34 34 36 37 37 38 38 38 39 39 39 39 40 39 39 40 40 41 40 40 40 40 40 39 39 38 38 38 37 36 35 34 33 32 31 29 27 26 25 24 23 22 21 19 18 17 16 15 15 16 17 18 19 19 20 20 20 20 20 20 19 19 19 18 17 16 15 15
34 34 34 36 37 37 37 38 38 38 38 38 39 39 39 39 39 41 41 41 40 40 40 39 39 38 38 38 38 37 36 35 34 33 32 31 29 28 26 25 24 22 21 20 18 17 17 16 16 17 18 19 20 21 21 21 21 21 20 20 20 20 20 20 20 19 17 16 15
33 34 35 36 36 36 37 37 37 37 38 38 39 38 38 39 40 40 40 40 39 39 38 37 37 37 38 38 38 37 36 35 34 33 32 31 29 28 26 25 23 22 20 19 18 17 17 18 18 19 20 21 22 22 22 22 22 21 20 20 20 20 20 20 20 19 18 17 16
34 35 36 36 36 36 36 36 36 37 38 38 38 38 39 39 40 39 39 38 38 37 35 35 35 36 38 38 38 37 36 35 34 32 31 30 29 27 26 24 22 21 20 18 18 18 18 19 20 21 22 22 23 23 23 22 22 21 20 20 19 19 20 19 19 18 17 16 15
35 36 36 36 36 36 35 35 36 37 37 37 38 38 38 38 37 37 37 36 35 35 35 35 36 37 38 38 37 37 36 34 33 32 31 30 29 27 25 23 22 21 20 19 19 19 20 21 21 22 22 23 23 23 23 22 21 21 20 20 19 19 18 18 17 16 15 15 14
35 36 36 36 36 35 35 35 36 36 37 37 37 37 37 36 35 35 35 35 35 36 37 39 39 38 37 37 37 36 35 34 32 31 30 30 29 27 25 23 22 21 21 20 21 21 22 22 22 22 23 23 23 22 22 21 21 20 20 19 18 18 17 17 16 15 15 14 14
35 36 36 36 35 35 35 35 36 36 37 37 37 36 35 35 34 34 34 36 37 38 38 39 39 38 37 36 35 35 34 33 32 31 30 29 28 27 25 24 23 22 22 22 22 23 23 23 23 22 22 22 22 22 21 21 21 20 19 19 18 17 17 16 16 15 15 14 14
34 35 36 36 35 35 35 35 35 36 36 36 35 35 35 34 34 35 35 37 38 38 38 38 38 37 36 35 34 34 34 33 32 30 29 28 28 27 26 24 23 23 22 22 23 23 23 23 22 22 22 21 21 21 21 21 21 21 20 19 19 18 17 17 16 16 15 14 14
34 35 35 35 35 35 35 35 35 35 35 34 34 34 35 36 36 35 35 35 36 36 37 37 36 35 35 34 34 34 33 32 31 30 29 28 27 27 26 25 24 23 22 22 22 23 23 22 22 21 21 21 21 21 21 22 22 22 22 21 20 19 18 18 17 16 15 14 13
34 35 35 35 35 35 35 35 35 35 35 34 33 34 35 36 36 35 35 35 36 36 35 35 34 34 34 34 34 34 34 32 31 30 29 28 27 27 26 25 24 23 22 22 22 22 22 22 21 21 21 22 22 22 23 24 24 24 23 22 21 20 19 18 17 16 15 14 12
34 35 35 35 35 35 35 35 35 35 34 34 34 34 34 35 35 35 36 37 37 36 35 35 34 34 34 34 33 33 33 32 31 30 28 27 27 27 26 25 24 22 22 22 22 22 22 21 21 22 22 23 24 24 25 25 25 25 24 23 22 21 19 18 17 16 15 14 13
33 35 36 36 35 35 35 36 36 35 34 34 34 34 34 35 34 34 36 37 37 36 35 35 34 34 34 33 33 32 31 31 31 30 28 27 27 27 27 26 24 22 22 21 22 22 21 21 22 22 23 25 25 25 26 26 25 25 24 24 23 21 20 19 18 17 16 15 14
32 35 36 37 36 35 35 36 35 34 34 34 34 34 34 35 34 33 34 36 36 36 36 35 34 34 34 34 33 32 31 30 30 29 29 28 27 27 27 26 24 23 22 21 21 21 21 22 22 23 24 25 26 26 26 26 26 25 25 24 23 22 21 20 20 19 17 16 15
31 34 36 37 36 36 36 35 35 35 35 35 34 34 33 33 31 31 32 34 36 36 36 36 35 35 35 35 34 33 31 30 29 28 28 27 27 27 27 26 25 23 22 22 22 22 22 22 23 23 24 25 25 26 26 26 26 25 24 24 23 22 21 20 20 19 18 16 15
31 33 35 36 37 36 35 34 34 35 36 36 35 33 33 32 32 32 33 34 35 36 37 37 36 36 35 35 35 33 32 30 28 27 27 26 26 26 26 26 25 24 23 22 22 23 23 23 23 23 23 24 24 24 25 25 25 25 24 23 23 22 21 20 19 19 18 17 16
32 33 34 35 36 36 35 35 34 35 35 35 34 34 34 34 34 34 34 34 35 36 36 36 36 35 35 34 34 33 32 30 28 27 27 26 26 26 26 27 26 25 24 23 23 23 23 22 22 21 21 22 22 23 23 23 24 24 23 22 22 22 21 21 20 19 18 18 17
Wind_Direction
231 232 233 235 237 237 236 235 236 236 234 230 225 221 218 216 215 207 195 186 180 178 176 176 173 169 167 171 176 179 183 189 188 189 190 186 177 169 165 162 161 159 157 158 162 163 162 160 159 163 168 168 161 154 151 151 151 150 149 147 146 147 148 147 146 148 149 149 150
233 234 236 238 239 239 239 238 237 235 231 224 216 211 211 214 217 211 197 185 177 171 167 164 162 162 162 161 167 172 174 174 174 176 177 173 166 161 157 157 160 159 155 156 161 162 161 160 160 161 162 160 155 149 147 148 149 148 147 146 146 147 148 147 147 149 151 150 151
236 237 238 240 241 240 237 233 228 224 219 211 203 200 201 205 210 205 191 178 167 159 154 151 154 156 156 157 159 160 157 154 154 157 159 158 157 154 155 160 158 155 157 165 166 161 157 158 158 157 156 154 151 147 145 146 148 148 146 146 148 149 149 148 149 151 152 151 153
240 239 237 235 232 227 220 212 206 199 191 182 180 178 176 174 173 171 167 159 151 147 145 144 143 144 147 149 150 147 143 141 143 145 147 148 148 151 155 156 153 151 155 162 158 155 154 154 154 153 152 151 150 148 147 147 149 149 147 148 150 152 151 150 151 153 154 154 157
230 218 202 191 194 194 190 185 181 176 170 165 162 157 152 147 144 143 144 144 141 140 140 139 137 137 139 140 139 138 138 138 138 138 138 139 141 144 147 149 148 148 149 151 151 151 151 151 151 151 151 153 152 151 151 152 152 150 148 149 151 153 153 152 154 157 159 160 162
177 170 172 170 169 163 158 158 156 156 156 157 153 147 143 142 142 141 138 136 134 135 136 137 136 134 133 132 133 134 133 132 133 132 131 130 132 137 141 144 145 145 146 147 148 150 151 151 152 152 154 155 155 155 156 157 156 153 150 148 150 153 155 155 158 162 164 165 165
171 174 172 162 155 151 149 148 148 149 150 151 149 144 142 142 144 146 144 138 135 134 135 135 134 131 129 127 128 129 129 129 130 129 127 125 125 128 131 134 136 139 143 146 149 152 155 156 155 155 155 156 156 156 159 161 159 155 151 149 150 154 157 158 163 166 167 167 167
185 187 181 170 164 157 152 149 149 150 149 145 144 143 142 142 144 146 146 141 137 134 133 131 130 129 128 126 126 126 128 129 129 129 127 125 123 122 122 125 129 135 141 148 152 156 158 159 158 156 156 157 157 158 160 163 161 158 154 151 152 156 161 164 168 171 171 171 171
166 169 170 170 167 159 152 150 149 147 143 141 140 140 140 140 141 142 142 140 138 135 131 128 127 127 127 127 126 127 129 129 129 128 127 126 125 122 120 122 127 133 140 147 153 157 158 158 157 157 157 159 159 159 161 163 161 158 156 154 154 157 162 169 174 176 176 176 174
147 149 150 151 150 149 147 144 142 139 137 136 135 135 135 135 136 136 137 138 138 135 131 129 129 128 127 126 127 127 128 128 128 127 127 127 127 126 125 125 130 134 138 144 149 153 154 155 154 155 157 159 159 159 161 162 162 159 157 157 157 159 161 166 171 174 175 175 174
146 145 142 141 140 140 138 135 133 133 133 132 132 131 130 130 130 132 134 136 136 134 134 133 132 130 128 127 128 129 129 130 129 128 128 128 129 130 131 132 135 137 139 141 143 146 149 151 152 153 154 156 156 157 158 161 161 159 158 158 161 162 163 165 169 172 172 172 172
146 144 141 139 139 138 135 132 132 132 132 132 131 130 129 128 129 130 132 134 134 134 134 134 133 132 130 130 131 131 132 133 132 131 130 130 131 134 137 140 143 145 145 144 144 145 147 149 151 152 153 153 154 154 156 160 161 160 159 161 164 165 165 166 169 171 172 172 170
143 141 139 138 138 137 135 134 134 134 135 134 133 132 130 130 131 133 134 134 134 133 132 132 132 132 132 133 135 135 136 137 136 135 134 133 135 138 142 147 151 154 155 154 153 153 153 153 154 154 154 154 154 155 158 162 165 164 163 164 165 166 167 168 169 171 172 171 168
142 141 139 138 137 136 135 134 135 136 137 137 135 134 132 132 134 136 137 136 134 133 131 131 131 132 135 137 138 139 140 140 139 138 137 138 140 144 148 153 157 159 161 161 162 162 161 160 158 157 157 156 157 159 162 165 167 167 167 166 165 166 167 167 168 170 170 167 165
142 141 140 138 136 134 133 134 136 137 138 137 136 135 134 135 137 138 139 138 137 136 135 134 133 134 136 139 140 140 140 140 139 139 139 142 145 150 154 158 160 162 163 164 165 167 167 164 162 160 160 159 159 160 162 163 165 166 166 166 166 165 165 164 165 167 166 165 160
142 141 139 137 135 133 133 135 136 137 137 137 136 135 135 136 138 140 141 141 140 139 138 137 135 135 136 137 139 139 140 140 139 140 141 144 149 154 158 161 162 164 165 166 167 167 167 165 163 162 161 161 160 159 160 160 161 162 163 163 163 162 160 160 161 162 163 164 158
143 141 139 136 134 134 134 135 135 135 135 134 134 134 135 136 138 140 141 141 140 139 138 137 137 136 136 136 138 139 139 139 140 141 143 146 151 155 158 160 162 164 166 167 167 166 165 163 163 163 163 161 159 158 157 157 157 157 157 157 157 155 155 157 158 159 160 161 156
145 142 139 136 135 134 133 134 133 133 132 132 132 133 134 136 137 138 139 140 139 138 136 136 137 137 136 136 137 139 140 140 140 142 144 147 150 153 155 157 159 161 163 164 164 163 162 160 161 163 163 161 159 157 156 155 154 153 153 152 151 150 150 152 154 155 156 154 151
146 142 139 136 135 134 133 133 132 131 131 131 132 132 134 135 136 136 137 137 138 138 136 135 136 136 137 137 138 139 140 140 140 141 143 146 148 150 151 153 155 157 158 159 159 158 157 157 159 160 161 159 156 155 153 152 150 150 149 147 146 146 147 148 149 150 151 149 145
144 140 138 136 135 133 132 132 132 132 132 132 131 131 132 133 134 134 134 135 137 138 137 136 135 135 136 137 137 138 138 139 140 140 142 144 146 147 148 149 150 151 152 152 152 152 152 153 154 156 156 154 151 150 149 148 147 146 145 145 144 144 145 145 146 147 146 145 143
139 137 135 134 133 132 132 132 132 133 132 132 131 131 131 131 130 131 132 134 136 136 136 136 135 135 135 136 135 135 135 137 138 138 139 142 143 144 145 146 146 146 147 148 148 148 149 150 150 150 149 148 147 147 147 146 145 143 142 142 142 142 143 144 145 145 145 144 143
135 133 132 132 132 131 132 132 133 133 132 131 131 130 130 129 128 128 130 132 133 133 133 134 134 134 134 134 134 133 132 133 134 135 136 137 138 139 141 143 143 144 145 146 146 147 147 147 145 144 143 144 146 148 148 147 145 143 141 140 140 140 141 143 144 144 144 143 142
134 132 131 131 131 131 132 132 132 132 131 131 130 129 129 128 127 127 128 129 129 130 130 131 132 132 133 133 133 132 131 130 130 131 132 133 132 133 135 139 141 142 143 143 144 145 143 140 138 138 141 145 148 149 149 149 147 145 142 140 139 138 139 141 142 142 140 138 135
133 132 132 132 131 131 131 132 131 131 131 130 130 129 128 127 127 127 126 126 127 127 127 128 128 130 130 131 132 131 130 129 127 127 127 128 128 129 131 134 137 138 139 140 141 140 137 133 132 135 143 149 151 150 150 150 148 146 143 140 138 136 136 136 137 136 134 130 127
133 132 132 132 132 132 132 131 131 131 130 130 130 129 128 127 127 126 125 124 125 125 125 125 126 127 128 128 129 129 129 128 127 126 125 125 126 128 130 131 133 135 136 137 136 134 130 129 132 140 148 153 153 151 149 148 146 144 142 139 136 134 132 130 129 128 126 123 122
132 132 131 132 132 132 131 131 131 130 130 130 129 128 127 126 126 126 124 123 123 123 124 124 124 125 125 125 126 126 125 125 126 126 126 125 126 127 128 129 130 131 132 132 131 129 128 131 139 149 156 156 153 150 146 145 144 142 140 137 135 132 128 124 121 119 118 117 116
131 131 131 131 131 131 130 131 130 129 129 129 128 127 126 126 125 125 123 122 122 122 122 122 122 123 123 124 124 123 122 123 124 126 126 126 126 126 126 126 127 128 128 129 128 128 131 137 147 155 158 156 152 147 144 142 141 139 137 135 132 129 124 119 115 113 111 111 110
131 131 131 130 130 129 130 130 129 128 128 128 128 127 126 125 124 123 122 122 121 121 120 120 121 122 123 122 122 122 123 123 124 125 127 127 127 126 126 125 125 125 126 127 128 131 136 144 152 156 156 152 148 145 142 141 139 138 136 132 129 125 121 117 113 110 108 106 104
133 132 131 130 129 129 129 129 129 128 128 128 127 126 126 125 124 123 122 122 121 121 120 120 122 122 121 120 121 123 124 125 126 127 128 128 127 126 125 124 123 123 124 127 130 134 141 148 152 153 151 148 145 144 142 141 139 137 133 129 126 122 118 114 112 109 106 103 100
134 133 132 131 130 130 129 129 129 129 128 128 127 126 125 124 123 122 122 122 121 121 122 123 122 121 121 121 123 123 124 126 128 130 130 129 126 124 123 122 121 121 123 127 132 137 143 147 149 149 147 146 144 143 142 140 136 132 127 123 119 115 111 107 104 101 98 96 94
135 134 133 131 130 130 130 129 129 129 128 127 126 125 124 122 122 121 122 122 122 122 123 124 122 121 122 123 124 124 125 126 127 129 128 127 124 122 121 120 120 121 125 129 134 138 141 144 145 145 144 143 142 140 137 133 128 123 118 114 110 106 102 98 94 91 89 88 86
135 134 132 131 130 130 129 129 129 128 128 127 125 124 122 121 121 121 122 122 122 123 123 123 123 122 122 123 124 124 125 125 125 125 125 124 122 121 120 120 120 123 127 131 134 137 139 140 141 141 141 140 137 134 130 125 120 115 111 107 103 99 96 93 90 88 86 85 84
135 133 132 130 130 129 129 128 128 127 126 125 124 122 121 120 120 120 121 121 122 123 123 123 123 123 123 123 123 122 122 122 123 123 122 121 121 120 120 120 122 125 129 132 135 137 138 139 139 139 137 135 132 128 123 119 113 108 104 100 97 94 92 90 88 87 86 85 84
134 133 131 130 129 129 128 128 127 126 124 122 121 120 120 120 120 120 120 121 122 122 123 123 123 123 123 123 122 121 120 120 121 121 120 120 120 120 120 121 123 127 130 134 136 138 139 139 138 137 135 132 128 123 118 113 108 103 100 96 94 92 90 89 87 86 85 84 83
134 132 131 130 129 128 128 127 126 124 122 121 120 119 120 120 120 121 121 122 121 121 120 120 120 120 120 120 120 120 120 119 119 119 119 120 120 120 120 121 124 128 132 135 138 139 139 139 138 136 133 129 124 119 114 108 104 101 99 97 94 93 91 90 87 85 83 82 80
135 133 131 129 129 128 128 126 125 123 121 120 120 119 119 119 120 121 122 122 121 119 118 117 117 117 116 116 117 118 119 119 119 119 119 120 120 120 121 122 125 129 132 136 137 138 138 137 136 134 131 126 120 115 110 106 103 101 100 98 95 94 92 89 86 83 80 76 72
135 133 131 130 129 128 127 127 126 123 121 121 120 120 119 119 120 121 122 122 120 118 117 117 116 116 116 116 116 117 118 119 119 119 120 121 121 122 122 124 126 129 132 135 135 135 135 135 135 132 128 123 118 113 109 106 104 102 100 98 96 94 91 88 84 80 75 71 68
135 133 131 130 129 128 127 127 125 123 121 121 121 120 120 120 120 121 121 121 119 117 116 116 115 115 116 117 117 117 118 119 120 120 121 122 123 124 124 124 126 129 131 132 133 133 133 133 133 130 126 121 116 113 110 107 105 102 101 99 97 95 92 89 86 82 77 73 70
134 132 131 129 128 128 127 125 124 122 121 121 120 120 120 120 120 120 120 120 119 118 117 115 115 115 116 117 116 116 117 118 119 119 120 122 123 125 125 124 125 127 129 130 131 131 131 131 130 127 124 119 116 113 110 108 106 104 102 100 98 96 93 91 89 86 83 79 74
132 131 129 129 128 127 125 123 122 122 122 121 120 120 120 120 119 119 119 118 117 116 116 115 115 116 116 116 116 115 115 116 116 117 119 120 122 123 124 123 123 124 126 128 129 129 130 129 127 124 121 118 115 113 111 109 107 105 103 102 100 97 94 91 90 89 86 83 78
130 129 127 126 126 124 123 122 121 121 121 121 120 120 120 120 120 119 117 116 115 114 114 115 115 116 116 115 115 115 115 115 116 116 118 119 120 120 121 120 120 121 123 125 127 127 127 126 123 121 118 116 115 114 113 111 109 106 104 103 101 98 95 93 91 89 86 84 80
Height
660 662 665 668 671 673 676 679 681 684 687 690 693 695 697 698 699 700 699 697 695 695 696 698 700 703 706 710 712 714 716 719 722 726 728 729 727 726 726 728 729 732 736 742 747 751 755 758 761 766 770 773 775 775 775 775 775 775 777 779 781 783 785 786 788 790 791 793 794
660 663 666 669 671 674 676 678 681 683 686 689 690 694 697 700 701 702 702 701 700 699 699 700 701 701 704 709 713 716 719 722 725 730 732 733 730 728 728 730 731 733 737 742 746 750 753 756 759 763 767 771 773 774 775 775 775 775 776 778 780 782 784 785 787 789 791 792 794
661 664 667 670 672 674 676 678 680 682 685 686 688 691 695 699 701 704 704 704 702 700 700 700 700 701 703 707 712 716 719 722 725 729 733 735 734 732 731 732 733 735 739 743 747 750 752 755 758 761 765 769 771 773 774 775 776 776 776 778 780 781 783 785 787 789 790 792 793
662 665 667 670 672 674 676 678 679 681 683 684 685 687 692 697 701 704 706 706 704 702 700 699 700 701 703 705 709 714 718 721 725 729 733 736 737 736 735 734 735 737 741 745 747 750 752 754 757 760 764 767 770 772 774 775 776 776 777 778 779 781 783 784 786 788 789 791 792
663 665 667 670 672 674 676 678 680 680 681 681 682 683 687 693 700 705 708 708 707 704 701 700 700 702 703 704 706 710 715 720 725 729 733 737 739 739 738 736 737 739 742 746 749 751 753 755 758 761 765 767 770 772 774 775 776 776 777 778 780 781 782 784 785 787 788 790 792
663 665 667 670 672 675 676 678 679 680 681 681 681 680 682 687 697 705 711 712 711 708 704 701 701 702 703 703 705 708 714 721 726 730 733 737 740 742 741 739 737 740 744 749 752 753 755 756 759 762 765 767 770 772 774 775 775 776 778 779 780 781 782 783 785 786 788 790 791
663 665 668 670 672 675 676 677 679 681 683 683 682 680 679 680 690 702 711 715 715 712 709 705 703 703 703 704 705 710 716 722 727 730 733 737 742 745 745 742 740 743 748 751 754 755 757 758 760 762 764 766 769 772 774 775 775 776 777 779 780 781 782 783 785 786 788 790 791
661 664 667 669 671 673 675 676 678 681 684 685 684 682 680 679 684 695 707 715 717 716 712 708 705 704 704 705 708 712 718 723 727 731 734 737 743 747 747 745 746 748 752 754 756 757 758 759 760 761 763 766 769 771 773 774 775 775 776 778 780 781 782 784 785 786 788 790 791
661 663 665 667 669 670 671 673 676 680 683 685 685 684 682 680 681 689 701 712 717 718 715 710 707 706 705 706 710 714 719 724 728 730 733 736 742 747 749 750 751 753 755 757 758 758 758 759 760 761 763 766 768 770 772 773 774 774 775 777 779 780 782 783 785 786 788 790 791
661 663 665 666 667 668 669 670 674 678 683 686 687 686 684 683 682 687 696 707 715 717 715 712 709 707 707 708 712 716 720 725 728 730 731 735 741 747 751 753 754 756 758 760 761 760 759 760 761 763 765 767 769 770 771 772 772 773 775 776 778 779 781 783 785 786 788 789 790
662 664 666 667 668 668 669 670 674 678 683 686 688 688 687 685 685 687 695 705 712 716 715 713 710 708 708 710 714 718 722 726 729 730 731 734 740 746 752 755 757 759 761 762 762 762 761 761 763 765 767 769 770 771 771 771 772 772 774 775 777 779 781 783 785 787 788 789 790
663 665 667 667 668 669 670 671 675 679 683 686 688 689 688 687 687 690 696 705 713 716 716 714 710 708 709 713 716 720 723 726 728 730 731 734 739 745 751 756 760 762 763 764 764 764 765 765 766 767 769 770 772 772 772 772 772 772 774 775 777 779 781 784 785 787 788 789 789
665 666 668 668 669 669 670 673 676 680 683 686 687 688 688 688 689 692 698 707 713 716 716 715 712 710 711 714 718 721 724 725 726 728 730 734 738 744 750 756 760 764 765 766 766 767 768 769 769 770 770 772 773 773 773 773 773 773 774 775 777 780 782 784 785 787 787 788 789
666 667 669 669 669 670 671 674 678 681 684 685 686 686 687 689 690 694 699 706 712 715 715 715 714 714 714 715 718 721 724 725 725 726 729 733 738 744 750 755 760 763 765 766 767 768 770 771 771 771 771 772 773 774 774 774 774 774 775 776 778 780 782 784 785 786 787 788 789
668 668 669 669 670 671 673 676 679 682 685 685 685 685 685 687 690 694 699 705 710 712 713 714 715 716 716 717 718 721 724 725 725 725 728 732 738 744 750 754 758 761 763 765 767 769 770 772 772 772 772 773 774 774 775 775 775 776 777 778 779 780 782 784 785 786 787 788 789
669 669 669 669 670 672 675 678 681 684 685 686 686 685 685 687 690 693 698 703 707 710 711 712 714 716 718 719 720 721 724 726 727 727 729 733 738 744 749 753 756 759 762 764 766 768 770 771 772 773 773 774 775 775 776 776 777 777 778 779 780 781 783 784 785 786 787 788 789
670 669 668 669 670 672 675 679 682 684 686 686 686 686 687 689 691 694 698 700 704 707 709 711 714 716 719 720 722 723 725 727 729 729 731 734 738 743 748 752 755 758 761 763 765 768 769 770 771 773 774 775 776 777 777 778 778 779 780 780 782 783 784 785 786 787 788 788 789
670 669 668 669 670 673 675 678 681 684 686 687 688 688 689 691 693 696 698 700 701 704 708 711 714 716 718 720 723 725 727 729 730 731 733 735 739 743 747 751 755 758 760 762 765 766 767 768 770 772 774 776 777 778 778 779 780 780 781 782 783 784 785 786 787 787 788 789 790
671 669 668 669 670 672 675 677 680 683 686 688 690 691 692 694 695 697 699 701 703 705 708 711 715 717 719 720 723 726 728 729 730 732 734 736 740 743 746 750 754 757 760 761 763 764 766 768 770 772 775 776 777 779 780 780 781 782 783 784 784 785 786 787 788 789 789 790 791
671 669 668 669 670 671 674 676 680 683 686 689 691 693 695 697 698 699 700 703 705 707 709 712 715 718 720 721 724 726 729 730 731 733 735 738 740 744 747 750 754 757 759 760 762 763 765 768 771 773 775 776 777 779 780 782 783 784 785 785 786 786 787 788 789 790 790 791 791
671 670 669 669 670 671 674 677 680 684 687 690 693 695 697 699 700 700 701 703 706 709 711 713 716 718 720 722 724 726 729 731 733 735 737 739 742 745 747 750 753 756 759 760 761 764 766 769 771 773 775 776 778 780 782 784 785 785 786 786 787 788 789 789 790 791 791 791 792
671 670 670 670 671 673 676 679 682 685 689 691 694 696 698 700 701 702 703 705 707 710 712 715 717 719 720 721 723 726 728 731 734 736 738 741 743 745 748 750 753 756 759 760 762 764 767 769 771 773 775 777 780 781 783 785 786 787 788 788 789 789 790 791 791 791 791 792 792
670 670 671 672 674 676 679 681 684 687 690 692 695 696 698 700 702 703 704 706 708 711 714 716 718 720 721 722 723 725 728 731 734 737 740 742 744 746 749 751 754 757 760 762 763 765 766 768 770 772 775 779 781 783 785 786 787 788 789 789 790 790 791 792 792 792 792 792 792
669 671 673 675 677 679 681 684 686 688 690 693 695 697 698 700 702 704 705 707 709 712 715 717 720 721 722 723 725 726 728 731 734 737 740 743 745 747 750 753 755 759 761 763 764 765 765 766 769 773 777 781 783 784 785 786 788 789 790 790 791 791 792 792 792 792 791 791 791
670 672 674 676 679 681 683 685 687 689 691 693 695 697 699 700 702 704 706 708 710 713 715 718 720 722 723 725 726 728 730 732 734 737 740 743 746 749 751 755 758 760 762 764 764 764 765 766 770 775 780 783 784 785 786 787 788 789 790 791 791 792 792 793 792 792 791 790 790
671 674 676 678 680 682 684 686 688 690 692 694 695 697 699 701 703 704 706 709 712 714 717 719 721 723 725 726 727 729 731 733 735 738 740 744 747 750 753 756 760 762 763 764 764 764 765 768 773 777 781 783 785 785 786 787 789 790 790 791 791 791 792 792 791 790 790 790 790
673 675 677 679 681 683 685 687 689 691 693 695 696 698 700 702 703 705 707 710 713 715 718 720 722 724 725 727 728 730 732 735 737 739 742 745 748 752 755 758 760 762 763 763 764 765 767 770 774 778 781 783 785 785 786 787 789 789 790 790 790 791 791 790 790 789 789 789 789
675 677 679 680 682 684 686 688 690 692 694 695 697 699 700 702 704 706 708 711 713 716 719 721 723 725 726 728 729 731 734 736 739 741 744 747 750 753 756 758 760 761 762 763 765 767 770 773 776 779 781 783 784 785 786 787 788 789 789 789 790 790 789 789 788 787 787 788 788
675 677 679 681 683 685 687 689 690 692 694 696 697 699 701 703 705 707 709 712 714 716 719 722 724 725 726 728 730 733 735 737 740 742 745 748 751 753 755 757 759 760 762 764 766 769 772 775 777 780 782 783 784 785 786 787 788 788 788 788 788 788 787 787 786 786 786 787 787
676 678 680 681 683 685 688 690 691 693 695 697 698 700 702 704 706 708 710 712 715 717 719 721 723 725 727 729 732 734 736 739 741 743 746 748 750 753 755 756 758 760 762 765 768 771 774 777 779 780 782 783 784 785 786 787 787 787 787 787 787 786 786 785 785 785 786 786 786
677 678 680 682 684 686 689 690 692 694 695 697 699 701 703 705 707 709 711 713 715 718 720 721 723 725 728 730 733 735 737 740 742 744 746 748 750 752 754 755 758 760 763 766 770 773 775 778 780 781 783 784 785 785 786 786 786 786 786 785 785 785 785 785 785 785 786 786 786
678 679 680 682 685 687 689 691 693 695 696 698 700 702 704 705 708 710 712 714 716 718 720 722 724 727 730 732 734 736 738 740 742 744 746 747 749 751 754 756 759 761 765 768 771 774 776 778 780 781 783 784 785 785 785 785 785 784 784 784 784 784 784 784 785 785 785 785 786
679 680 681 683 685 688 690 692 694 695 697 699 701 703 704 706 709 711 714 715 717 720 721 724 725 728 730 733 735 736 738 740 743 745 747 748 750 752 755 758 761 764 767 770 772 775 777 779 780 782 783 784 785 785 784 784 783 783 782 782 783 783 784 785 785 785 786 786 786
680 681 682 684 686 688 690 692 694 696 698 700 702 704 705 707 710 712 715 717 719 721 723 725 727 729 731 733 734 736 738 741 744 746 748 750 752 754 757 760 763 766 768 771 773 775 777 779 780 782 783 784 784 784 783 782 781 781 781 782 783 784 785 785 785 786 786 786 787
680 681 683 685 686 688 691 693 695 697 699 701 704 705 707 709 710 713 716 718 720 722 725 727 729 730 732 734 735 737 739 742 745 748 750 752 754 756 759 762 765 767 770 771 774 775 777 779 780 782 782 783 783 782 781 780 780 780 781 782 783 785 785 786 786 787 787 787 788
681 681 683 685 687 689 691 694 696 698 700 702 705 707 709 711 713 715 717 719 721 723 725 728 730 731 733 735 737 739 741 744 747 750 752 754 756 758 761 763 766 769 770 772 774 775 777 779 780 781 781 781 781 780 780 780 780 781 782 783 784 785 786 787 787 788 788 788 789
682 682 683 685 688 690 692 694 697 699 702 704 706 708 710 713 715 718 719 720 722 724 726 729 730 732 734 736 739 742 744 746 748 751 753 756 758 760 762 765 767 770 771 773 774 776 777 779 780 780 780 780 780 779 779 779 780 781 783 784 785 786 787 788 788 788 789 789 789
683 683 684 685 688 691 693 696 698 701 703 706 708 710 712 714 717 720 721 722 722 725 727 730 732 734 736 738 740 743 746 748 750 752 755 758 760 761 763 765 768 770 771 773 774 776 777 779 780 780 780 779 779 778 779 780 781 783 784 785 786 787 788 788 789 789 789 790 790
685 685 685 687 689 692 695 698 700 702 705 707 710 712 715 717 719 722 723 724 724 725 728 730 734 736 738 740 742 745 748 750 753 755 757 760 762 763 765 766 768 770 772 773 775 776 778 779 780 780 779 778 778 779 779 780 782 784 785 786 787 788 788 789 789 790 790 790 791
687 688 688 689 691 693 696 699 702 704 706 708 711 714 716 718 720 723 725 726 726 728 730 732 735 738 740 742 744 747 750 753 755 757 760 762 764 765 766 767 768 770 772 774 775 776 778 779 779 779 779 778 779 779 780 781 783 784 785 787 787 788 789 790 790 790 791 791 792
689 690 691 692 693 695 698 700 703 706 708 710 712 715 717 719 721 724 725 727 729 730 732 735 737 740 742 744 746 749 751 755 757 760 762 764 765 767 767 768 769 770 772 774 775 777 778 779 779 779 779 779 780 780 781 782 783 785 786 787 788 789 790 790 791 791 792 793 793